Flag for Ethiopia Weather past 2 weeks in Addis Ababa, Ethiopia

Now
57 °F

Rain. Mostly cloudy.


Feels Like: 57 °F
Forecast: 50 / 65 °F
Wind: 5 mph from Southeast

Location: Addis Ababa Airport

Current Time: Aug 2, 2014 at 8:24:11 AM

Latest Report: Aug 2, 2014 at 8:00 AM


Visibility: 4 mi

Pressure: 30.39 "Hg

Humidity: 88%

Dew point: 54 °F

Location of Addis AbabaLocation

Historic Weather in Addis Ababa — Graph

°F

Addis Ababa temperature yesterday

Maximum temperature yesterday: 63 °F (at 1:00 PM)
Minimum temperature yesterday: 55 °F (at 7:00 AM)
Average temperature yesterday: 59 °F

Past Weeks' High & Low Weather Summary

 TemperatureHumidityPressure
High75 °F (Jul 23, 5:00 PM)100% (Jul 18, 7:00 AM)30.48 "Hg (Jul 18, 7:00 AM)
Low54 °F (Jul 20, 9:00 AM)49% (Jul 23, 1:00 PM)30.21 "Hg (Aug 1, 4:00 PM)
Average61 °F79%30.35 "Hg
* Reported Jul 18 7:00 AM — Aug 2 7:00 AM, Addis Ababa, Weather by CustomWeather, © 2014

Note: Actual official high and low records may vary slightly from our data, if they occured in-between our weather recording intervals... More about our weather records

Advertising

Addis Ababa weather history for previous 24 hours

 ConditionsComfort  
Time TempWeatherWind HumidityBarometerVisibility
7:00 AM
Aug 2
55 °FFog.5 mph88%30.33 "Hg5 mi
6:00 AM55 °FPassing clouds.9 mph88%30.33 "HgN/A
5:00 AM57 °FPassing clouds.5 mph82%30.30 "HgN/A
4:00 AM57 °FPassing clouds.9 mph88%30.30 "HgN/A
3:00 AM57 °FPassing clouds.7 mph88%30.30 "HgN/A
2:00 AM57 °FPartly cloudy.2 mph82%30.33 "HgN/A
1:00 AM57 °FPartly cloudy.2 mph82%30.33 "HgN/A
12:00 AM57 °FPartly cloudy.5 mph82%30.36 "HgN/A
11:00 PM
Aug 1
57 °FPartly cloudy.2 mph88%30.39 "HgN/A
9:00 PM57 °FPartly cloudy.9 mph88%30.33 "HgN/A
8:00 PM59 °FPartly cloudy.5 mph82%30.33 "HgN/A
7:00 PM61 °FPassing clouds.5 mph83%30.30 "HgN/A
6:00 PM61 °FBroken clouds.7 mph83%30.30 "HgN/A
5:00 PM63 °FRain. Passing clouds.5 mph73%30.30 "Hg6 mi
4:00 PM59 °FRain. Passing clouds.5 mph88%30.21 "Hg6 mi
3:00 PM59 °FPartly sunny.5 mph88%30.33 "HgN/A
2:00 PM59 °FMostly cloudy.5 mph88%30.33 "HgN/A
1:00 PM63 °FMostly cloudy.9 mph83%30.36 "HgN/A
12:00 PM59 °FCool.5 mph88%30.39 "HgN/A
11:00 AM59 °FCool.N/A82%30.39 "HgN/A
10:00 AM59 °FLight rain. Mostly cloudy.5 mph82%30.42 "Hg5 mi
9:00 AM57 °FMostly cloudy.5 mph88%30.39 "Hg4 mi
Weather by CustomWeather, © 2014

See weather overviewHow to use our weather pages